QPF
0.00 0.00 0.00 0.00 0.00 -0.00 0.00 0.00 0.00 0.00 0.00 0.00 -0.00 0.00 0.00 0.00 0.00 0.00 0.00 0.00 0.00 0.00 0.00 0.00 -0.00 0.00 -0.00 0.00 -0.00 -0.00 0.00 0.00 0.00 0.00 0.00 0.00 0.00 0.00 -0.00 0.00 0.00 0.00
0.00 0.00 0.00 0.00 -0.00 0.00 0.00 0.00 0.00 0.00 0.00 0.00 0.00 0.00 0.00 0.00 -0.00 0.00 0.00 -0.00 -0.00 0.00 0.00 0.00 0.00 0.00 0.00 -0.00 0.00 0.00 -0.00 0.00 -0.00 0.00 0.00 0.00 0.00 0.00 0.00 0.00 0.00 0.00
-0.00 0.00 0.00 0.00 0.00 0.00 0.00 -0.00 0.00 0.00 0.00 -0.00 0.00 0.00 -0.00 0.00 0.00 -0.00 0.00 0.00 0.00 0.00 0.00 0.00 0.00 0.00 0.00 -0.00 0.00 0.00 0.00 -0.00 0.00 0.00 0.00 0.00 0.00 0.00 0.00 -0.00 0.00 0.00
0.00 0.00 0.00 0.00 0.00 0.00 0.00 0.00 -0.00 0.00 0.00 -0.00 -0.00 0.00 -0.00 0.00 0.00 -0.00 0.00 0.00 0.00 -0.00 0.00 0.00 0.00 -0.00 0.00 -0.00 0.00 0.00 0.00 0.00 -0.00 0.00 -0.00 0.00 0.00 0.00 0.00 0.00 0.00 -0.00
0.00 0.00 0.00 0.00 0.00 0.00 0.00 -0.00 -0.00 -0.00 -0.00 0.00 0.00 -0.00 0.00 0.00 -0.00 0.00 -0.00 0.00 -0.00 0.00 -0.00 -0.00 0.00 0.00 -0.00 0.00 0.00 0.00 0.00 -0.00 0.00 0.00 0.00 0.00 0.00 0.00 0.00 0.00 0.00 0.00
0.00 0.00 0.00 0.00 0.00 0.00 0.00 0.00 0.00 0.00 0.00 0.00 0.00 0.00 0.00 0.00 0.00 -0.00 -0.00 0.00 -0.00 0.00 -0.00 0.00 -0.00 0.00 -0.00 0.00 0.00 0.00 0.00 -0.00 -0.00 -0.00 -0.00 0.00 0.00 -0.00 0.00 -0.00 -0.00 0.00
0.00 0.00 0.00 0.00 0.00 0.00 0.00 -0.00 -0.00 0.00 0.00 0.00 0.00 -0.00 0.00 0.00 0.00 0.00 0.00 0.00 0.00 0.00 0.00 -0.00 -0.00 0.00 0.00 0.00 0.00 0.00 0.00 -0.00 0.00 0.00 -0.00 -0.00 0.00 -0.00 0.00 0.00 0.00 -0.00
0.00 0.00 0.00 0.00 0.00 0.00 0.00 0.00 0.00 0.00 0.00 0.00 0.00 0.00 0.00 -0.00 0.00 -0.00 0.00 0.00 0.00 0.00 -0.00 0.00 -0.00 0.00 0.00 0.00 0.00 0.00 0.00 0.00 0.00 0.00 -0.00 -0.00 0.00 0.00 -0.00 0.00 0.00 0.00
0.00 0.00 0.00 0.00 0.00 0.00 0.00 0.00 0.00 0.00 0.00 -0.00 -0.00 0.00 0.00 0.00 0.00 0.00 0.00 0.00 0.00 0.00 0.00 0.00 0.00 0.00 0.00 0.00 0.00 0.00 0.00 0.00 0.00 0.00 0.00 0.00 0.00 0.00 -0.00 -0.00 -0.00 -0.00
0.00 0.00 0.00 0.00 0.00 0.00 0.00 0.00 0.00 0.00 0.00 -0.00 0.00 0.00 0.00 0.00 0.00 -0.00 0.00 0.00 0.00 -0.00 0.00 0.00 0.00 -0.00 0.00 0.00 0.00 0.00 -0.00 -0.00 0.00 -0.00 0.00 -0.00 0.00 0.00 0.00 -0.00 0.00 0.00
0.00 0.00 0.00 0.00 -0.00 -0.00 0.00 0.00 0.00 0.00 0.00 0.00 0.00 0.00 -0.00 0.00 0.00 0.00 0.00 -0.00 -0.00 0.00 0.00 -0.00 0.00 0.00 0.00 -0.00 0.00 0.00 -0.00 -0.00 0.00 0.00 -0.00 0.00 0.00 -0.00 0.00 0.00 0.00 -0.00
-0.00 0.00 0.00 0.00 0.00 0.00 0.00 0.00 0.00 0.00 0.00 0.00 0.00 0.00 0.00 -0.00 0.00 0.00 0.00 -0.00 0.00 0.00 0.00 0.00 -0.00 0.00 0.00 0.00 -0.00 0.00 0.00 0.00 0.00 0.00 0.00 0.00 0.00 0.00 0.00 -0.00 0.00 -0.00
0.00 0.00 0.00 0.00 0.00 0.00 0.00 0.00 0.00 0.01 0.02 0.00 0.00 -0.00 0.00 0.00 -0.00 0.00 0.00 0.00 0.00 0.00 0.00 0.00 -0.00 0.00 0.00 0.00 0.00 0.00 -0.00 0.00 0.00 0.00 0.00 0.00 0.00 0.00 -0.00 0.00 0.00 0.00
0.00 0.00 0.00 0.00 0.00 0.00 0.00 0.01 0.02 0.04 0.03 0.00 0.00 0.00 0.00 -0.00 -0.00 -0.00 0.00 0.00 -0.00 0.00 0.00 -0.00 0.00 0.00 0.00 0.00 0.00 0.00 0.00 -0.00 0.00 0.00 0.00 0.00 0.00 -0.00 0.00 0.00 0.00 0.00
0.00 0.00 0.00 0.00 0.00 0.00 0.00 0.01 0.01 0.02 0.00 -0.00 0.00 -0.00 0.00 0.00 0.00 -0.00 0.00 0.00 -0.00 -0.00 0.00 -0.00 0.00 -0.00 0.00 0.00 0.00 0.00 0.00 0.00 0.00 -0.00 -0.00 -0.00 0.00 0.00 0.00 0.00 0.00 0.00
0.00 0.00 0.00 0.00 0.00 0.00 0.01 0.02 0.03 0.02 0.00 0.00 -0.00 0.00 0.00 0.00 -0.00 -0.00 -0.00 0.00 0.00 0.00 -0.00 0.00 0.00 0.00 -0.00 0.00 0.00 0.00 0.00 0.00 -0.00 0.00 0.00 -0.00 0.00 -0.00 0.00 -0.00 0.00 -0.00
0.01 0.00 0.01 0.02 0.01 0.03 0.00 0.02 0.00 0.00 0.00 0.00 0.00 0.00 0.00 0.00 0.00 0.00 0.00 0.00 -0.00 0.00 -0.00 -0.00 -0.00 0.00 0.00 0.00 0.00 0.00 0.00 0.00 0.00 0.00 0.00 0.00 0.00 0.00 -0.00 0.00 0.00 0.00
0.03 0.03 0.01 0.02 0.00 0.01 0.02 0.00 -0.00 0.00 -0.00 0.00 0.00 0.00 -0.00 0.00 0.00 0.00 -0.00 0.00 -0.00 -0.00 0.00 0.00 0.00 0.00 -0.00 0.00 -0.00 0.00 -0.00 0.00 0.00 -0.00 0.00 -0.00 0.00 0.00 0.00 0.00 -0.00 -0.00
0.04 0.06 0.14 0.01 0.02 0.01 0.00 0.00 0.00 0.00 0.00 0.00 0.00 0.00 0.00 0.00 0.00 0.00 0.00 -0.00 -0.00 0.00 -0.00 0.00 -0.00 0.00 0.00 -0.00 0.00 0.00 0.00 0.00 0.00 0.00 0.00 0.00 0.00 0.00 -0.00 0.00 0.00 0.00
0.12 0.03 0.06 0.02 0.00 0.00 -0.00 0.00 0.00 0.00 0.00 0.00 0.00 -0.00 0.00 0.00 0.00 -0.00 0.00 0.00 -0.00 0.00 0.00 0.00 0.00 0.00 0.00 0.00 0.00 0.00 0.00 0.00 0.00 0.00 0.00 0.00 -0.00 -0.00 0.00 0.00 -0.00 0.00
0.06 0.09 0.03 0.01 0.00 0.00 0.00 0.00 0.00 0.00 0.00 0.00 0.00 0.00 0.00 0.00 0.00 0.00 0.00 0.00 0.00 -0.00 -0.00 -0.00 -0.00 0.00 0.01 0.00 0.00 0.00 0.00 -0.00 0.00 0.00 0.00 0.00 0.00 0.00 -0.00 -0.00 0.00 0.00
0.06 0.13 0.00 0.00 0.00 0.00 0.00 0.00 0.00 0.00 0.00 0.00 0.00 0.00 0.00 0.00 0.00 -0.00 0.00 0.00 0.00 0.00 0.00 0.00 0.00 0.00 0.00 0.00 -0.00 0.00 -0.00 0.00 0.00 -0.00 0.00 0.00 -0.00 0.00 0.00 0.00 -0.00 0.00
0.05 0.03 0.01 0.00 0.00 -0.00 -0.00 0.00 0.00 0.00 0.00 -0.00 0.00 0.00 0.00 0.00 0.00 0.00 0.00 0.00 0.00 -0.00 0.00 0.00 0.02 0.00 0.00 0.00 0.00 0.00 0.00 0.00 0.00 0.00 0.00 0.00 0.00 0.00 0.00 -0.00 0.00 -0.00
0.01 0.03 0.00 0.00 0.00 0.00 0.00 0.00 -0.00 0.00 0.00 -0.00 -0.00 0.00 -0.00 0.00 0.00 -0.00 0.00 -0.00 0.03 0.31 0.02 0.03 0.01 0.00 0.00 0.00 0.00 0.00 0.00 0.00 0.00 -0.00 0.00 0.00 0.00 0.00 0.00 -0.00 0.00 -0.00
0.02 0.00 0.00 0.00 0.00 -0.00 0.00 0.00 0.00 -0.00 0.00 0.00 0.00 0.00 0.00 0.00 0.00 0.00 0.00 0.03 0.08 0.08 0.01 0.01 0.00 0.00 0.00 0.00 -0.00 0.00 0.00 0.00 0.00 -0.00 -0.00 0.01 0.00 -0.00 0.00 0.00 0.00 0.00
0.02 0.01 0.00 0.00 0.00 0.00 -0.00 0.00 0.00 0.00 0.00 0.00 0.00 0.00 0.03 0.01 0.00 -0.00 0.00 0.00 0.00 0.00 0.00 0.00 0.00 0.01 0.00 0.00 0.00 0.00 -0.00 0.00 0.00 0.00 0.00 0.01 0.00 0.00 0.00 0.00 0.00 0.00
MSLP
1014.49 1014.73 1014.93 1015.17 1015.29 1015.41 1015.69 1016.01 1016.21 1016.25 1016.33 1016.33 1016.41 1016.49 1016.61 1016.57 1016.57 1016.65 1016.61 1016.65 1016.73 1016.81 1016.85 1016.89 1016.85 1016.89 1016.89 1016.97 1017.05 1017.17 1017.25 1017.29 1017.25 1017.25 1017.33 1017.41 1017.49 1017.57 1017.69 1017.69 1017.77 1017.81
1014.37 1014.49 1014.65 1014.85 1015.17 1015.37 1015.49 1015.61 1015.89 1016.05 1016.17 1016.21 1016.17 1016.29 1016.33 1016.41 1016.45 1016.49 1016.53 1016.61 1016.65 1016.73 1016.73 1016.77 1016.77 1016.77 1016.81 1016.89 1016.97 1017.13 1017.21 1017.25 1017.29 1017.13 1017.25 1017.33 1017.33 1017.41 1017.45 1017.45 1017.49 1017.53
1014.29 1014.45 1014.57 1014.89 1015.13 1015.29 1015.33 1015.45 1015.57 1015.77 1015.93 1015.97 1015.97 1016.13 1016.25 1016.29 1016.37 1016.37 1016.41 1016.45 1016.57 1016.61 1016.65 1016.61 1016.65 1016.69 1016.73 1016.77 1016.85 1017.01 1017.13 1017.21 1017.25 1017.09 1017.17 1017.21 1017.17 1017.33 1017.25 1017.25 1017.33 1017.37
1014.05 1014.13 1014.45 1014.73 1014.89 1015.09 1015.21 1015.41 1015.57 1015.65 1015.77 1015.93 1015.97 1015.97 1016.05 1016.09 1016.17 1016.25 1016.29 1016.25 1016.37 1016.45 1016.45 1016.49 1016.45 1016.49 1016.57 1016.65 1016.77 1016.93 1016.93 1017.01 1016.93 1016.93 1017.05 1017.05 1017.09 1017.09 1017.13 1017.13 1017.13 1017.13
1013.81 1014.09 1014.33 1014.53 1014.69 1014.85 1015.13 1015.33 1015.45 1015.57 1015.73 1015.69 1015.73 1015.85 1015.89 1015.93 1016.05 1016.13 1016.13 1016.13 1016.17 1016.25 1016.29 1016.33 1016.33 1016.37 1016.37 1016.53 1016.69 1016.85 1016.85 1016.85 1016.77 1016.85 1016.97 1016.97 1016.81 1016.85 1016.85 1016.97 1017.05 1017.09
1013.61 1013.85 1014.09 1014.29 1014.53 1014.81 1015.13 1015.25 1015.29 1015.45 1015.57 1015.73 1015.69 1015.69 1015.69 1015.69 1015.81 1015.89 1015.89 1015.93 1015.97 1016.05 1016.13 1016.17 1016.21 1016.21 1016.25 1016.33 1016.49 1016.61 1016.61 1016.65 1016.61 1016.73 1016.85 1016.85 1016.69 1016.65 1016.73 1016.77 1016.85 1016.93
1013.49 1013.73 1013.93 1014.09 1014.41 1014.65 1014.89 1015.05 1015.17 1015.29 1015.45 1015.49 1015.57 1015.61 1015.49 1015.57 1015.65 1015.65 1015.65 1015.69 1015.77 1015.89 1016.01 1016.05 1016.09 1016.13 1016.09 1016.21 1016.33 1016.41 1016.41 1016.45 1016.45 1016.61 1016.73 1016.69 1016.65 1016.61 1016.61 1016.65 1016.69 1016.73
1013.25 1013.45 1013.65 1013.97 1014.25 1014.53 1014.77 1014.93 1015.09 1015.25 1015.25 1015.45 1015.57 1015.37 1015.37 1015.33 1015.41 1015.41 1015.49 1015.53 1015.65 1015.77 1015.89 1015.89 1015.97 1016.01 1015.97 1016.09 1016.17 1016.21 1016.25 1016.25 1016.33 1016.41 1016.53 1016.53 1016.53 1016.53 1016.45 1016.45 1016.53 1016.61
1013.05 1013.37 1013.65 1013.93 1014.17 1014.41 1014.65 1014.77 1014.89 1015.01 1015.05 1015.29 1015.29 1015.25 1015.21 1015.17 1015.17 1015.25 1015.33 1015.41 1015.57 1015.65 1015.73 1015.81 1015.81 1015.85 1015.85 1015.93 1016.01 1016.05 1016.09 1016.09 1016.13 1016.21 1016.29 1016.29 1016.29 1016.25 1016.21 1016.25 1016.41 1016.45
1012.97 1013.25 1013.61 1013.85 1014.05 1014.21 1014.45 1014.57 1014.69 1014.85 1014.97 1015.13 1015.05 1014.97 1015.05 1015.01 1015.05 1015.09 1015.21 1015.33 1015.45 1015.53 1015.61 1015.69 1015.73 1015.77 1015.73 1015.77 1015.77 1015.81 1015.89 1015.93 1015.97 1016.05 1016.05 1016.09 1016.09 1016.09 1016.09 1016.17 1016.25 1016.29
1012.89 1013.17 1013.49 1013.61 1013.77 1014.01 1014.21 1014.33 1014.49 1014.69 1014.89 1015.05 1015.05 1014.97 1014.89 1014.97 1015.05 1015.05 1015.13 1015.21 1015.33 1015.37 1015.45 1015.53 1015.53 1015.53 1015.65 1015.61 1015.57 1015.53 1015.61 1015.69 1015.77 1015.85 1015.93 1015.93 1015.93 1015.93 1015.93 1016.01 1016.09 1016.13
1012.65 1012.97 1013.13 1013.25 1013.45 1013.77 1013.93 1014.05 1014.25 1014.45 1014.65 1014.73 1014.89 1014.85 1014.81 1014.85 1014.93 1014.93 1014.89 1014.93 1015.01 1015.09 1015.17 1015.21 1015.21 1015.25 1015.33 1015.29 1015.29 1015.29 1015.41 1015.53 1015.57 1015.69 1015.77 1015.81 1015.81 1015.85 1015.85 1015.89 1015.93 1015.93
1012.29 1012.49 1012.61 1012.85 1013.13 1013.41 1013.57 1013.85 1013.93 1013.97 1013.93 1014.13 1014.33 1014.53 1014.61 1014.69 1014.73 1014.69 1014.57 1014.61 1014.65 1014.77 1014.85 1014.85 1014.81 1014.89 1014.93 1014.97 1015.01 1015.09 1015.25 1015.37 1015.49 1015.57 1015.65 1015.69 1015.69 1015.69 1015.69 1015.73 1015.73 1015.69
1011.61 1011.85 1012.13 1012.45 1012.77 1013.09 1013.37 1013.61 1013.73 1013.77 1013.97 1013.97 1014.05 1014.25 1014.37 1014.45 1014.33 1014.21 1014.17 1014.29 1014.33 1014.41 1014.37 1014.41 1014.49 1014.57 1014.69 1014.81 1014.85 1014.93 1015.05 1015.17 1015.25 1015.37 1015.45 1015.49 1015.49 1015.49 1015.49 1015.49 1015.45 1015.41
1011.21 1011.57 1011.85 1012.21 1012.57 1012.93 1013.33 1013.57 1013.73 1014.05 1013.97 1013.97 1013.93 1014.05 1014.13 1014.09 1013.93 1013.93 1014.09 1014.25 1014.33 1014.37 1014.33 1014.29 1014.41 1014.49 1014.53 1014.57 1014.65 1014.77 1014.81 1014.89 1014.97 1015.09 1015.17 1015.25 1015.25 1015.25 1015.25 1015.21 1015.21 1015.13
1010.69 1011.25 1011.73 1012.05 1012.45 1012.85 1013.09 1013.21 1013.53 1013.73 1013.73 1013.81 1013.89 1013.93 1013.97 1013.89 1013.81 1013.81 1014.01 1014.17 1014.33 1014.37 1014.33 1014.37 1014.45 1014.45 1014.33 1014.21 1014.25 1014.37 1014.53 1014.65 1014.73 1014.81 1014.89 1014.97 1015.01 1015.01 1014.97 1014.93 1014.85 1014.85
1010.73 1011.13 1011.61 1012.01 1012.17 1012.41 1012.77 1012.97 1013.01 1013.21 1013.41 1013.53 1013.65 1013.73 1013.73 1013.65 1013.65 1013.85 1014.01 1014.13 1014.17 1014.17 1014.25 1014.29 1014.29 1014.17 1013.97 1013.93 1013.97 1014.01 1014.17 1014.37 1014.49 1014.57 1014.61 1014.73 1014.77 1014.81 1014.69 1014.53 1014.49 1014.49
1010.61 1011.05 1011.53 1011.81 1011.97 1012.25 1012.25 1012.25 1012.49 1012.85 1013.05 1013.17 1013.37 1013.53 1013.49 1013.45 1013.61 1013.65 1013.77 1013.89 1013.93 1013.97 1014.01 1014.05 1014.05 1013.85 1013.77 1013.73 1013.77 1013.77 1013.89 1014.01 1014.17 1014.29 1014.33 1014.37 1014.41 1014.41 1014.33 1014.29 1014.25 1014.25
1010.81 1011.21 1011.17 1011.05 1011.09 1011.33 1011.65 1012.01 1012.29 1012.45 1012.65 1012.85 1012.97 1012.97 1013.21 1013.41 1013.45 1013.53 1013.61 1013.61 1013.61 1013.73 1013.81 1013.81 1013.85 1013.65 1013.61 1013.53 1013.53 1013.57 1013.61 1013.73 1013.85 1013.89 1013.97 1013.97 1013.97 1013.97 1014.01 1014.05 1014.05 1014.05
1011.37 1010.89 1011.33 1011.21 1010.85 1010.93 1011.45 1011.81 1012.01 1012.09 1012.09 1012.29 1012.53 1012.85 1013.05 1013.21 1013.33 1013.33 1013.29 1013.29 1013.25 1013.37 1013.49 1013.57 1013.57 1013.45 1013.41 1013.37 1013.33 1013.33 1013.29 1013.41 1013.49 1013.49 1013.57 1013.61 1013.61 1013.65 1013.73 1013.77 1013.81 1013.85
1010.85 1010.89 1010.69 1010.37 1010.61 1010.89 1011.21 1011.41 1011.57 1011.73 1012.01 1012.13 1012.33 1012.53 1012.77 1012.89 1012.93 1012.93 1012.85 1012.81 1012.89 1012.97 1013.17 1013.21 1013.13 1013.01 1013.09 1013.13 1013.09 1013.05 1012.93 1013.05 1013.17 1013.25 1013.33 1013.37 1013.33 1013.37 1013.41 1013.41 1013.45 1013.57
1010.25 1010.41 1009.69 1009.93 1010.41 1010.85 1011.01 1011.05 1011.21 1011.49 1011.73 1011.93 1012.13 1012.17 1012.13 1012.25 1012.37 1012.45 1012.53 1012.57 1012.57 1012.65 1012.81 1012.89 1012.69 1012.57 1012.61 1012.73 1012.81 1012.77 1012.65 1012.81 1012.97 1013.05 1013.13 1013.13 1013.09 1013.09 1013.09 1013.13 1013.21 1013.33
1010.17 1010.01 1010.01 1010.17 1010.13 1010.45 1010.61 1010.65 1010.93 1011.21 1011.53 1011.69 1011.85 1011.77 1011.89 1012.05 1012.05 1012.09 1012.05 1012.13 1012.21 1012.29 1012.41 1012.41 1012.29 1012.01 1012.09 1012.37 1012.53 1012.53 1012.61 1012.69 1012.77 1012.85 1012.89 1012.85 1012.81 1012.81 1012.89 1012.89 1012.97 1013.05
1009.57 1009.73 1009.53 1009.73 1009.93 1010.17 1010.25 1010.33 1010.61 1011.01 1011.29 1011.33 1011.41 1011.53 1011.69 1011.57 1011.57 1011.69 1011.73 1011.77 1011.89 1012.01 1012.01 1012.09 1012.05 1011.89 1011.97 1012.05 1012.17 1012.29 1012.45 1012.41 1012.45 1012.57 1012.57 1012.65 1012.69 1012.69 1012.73 1012.73 1012.73 1012.69
1009.05 1008.97 1009.13 1009.37 1009.61 1009.69 1009.85 1010.29 1010.53 1010.65 1010.81 1011.05 1011.05 1011.05 1011.13 1011.21 1011.37 1011.53 1011.61 1011.69 1011.69 1011.69 1011.69 1011.81 1011.85 1011.77 1011.69 1011.73 1011.77 1011.81 1012.13 1012.17 1012.17 1012.25 1012.41 1012.45 1012.37 1012.41 1012.49 1012.53 1012.57 1012.53
1008.49 1008.57 1008.85 1009.09 1009.21 1009.41 1009.73 1009.89 1010.05 1010.45 1010.57 1010.65 1010.73 1010.81 1010.89 1010.85 1010.97 1011.25 1011.53 1011.57 1011.57 1011.65 1011.69 1011.65 1011.73 1011.61 1011.41 1011.45 1011.53 1011.53 1011.69 1011.89 1011.97 1012.17 1012.25 1012.25 1012.45 1012.33 1012.21 1012.29 1012.37 1012.45
Thickness
5773 5770 5767 5764 5761 5759 5756 5752 5750 5748 5746 5745 5743 5741 5740 5738 5738 5736 5734 5733 5731 5728 5727 5725 5724 5723 5721 5720 5717 5715 5713 5710 5709 5708 5705 5702 5699 5696 5694 5691 5689 5687
5771 5769 5766 5763 5760 5757 5755 5753 5750 5747 5745 5743 5742 5740 5738 5737 5735 5734 5732 5730 5729 5727 5726 5724 5722 5721 5719 5718 5715 5713 5710 5708 5706 5704 5701 5699 5697 5694 5692 5689 5687 5684
5770 5768 5765 5761 5758 5756 5754 5752 5750 5747 5744 5742 5741 5739 5736 5735 5733 5732 5731 5729 5727 5725 5724 5722 5720 5719 5717 5716 5713 5710 5708 5705 5703 5701 5698 5696 5694 5691 5690 5687 5684 5682
5768 5766 5763 5759 5757 5755 5752 5750 5747 5746 5743 5741 5739 5737 5735 5734 5732 5730 5729 5728 5725 5724 5722 5721 5719 5718 5716 5714 5711 5707 5705 5702 5700 5698 5695 5693 5692 5689 5687 5685 5682 5680
5767 5764 5761 5758 5756 5753 5750 5748 5745 5743 5740 5739 5737 5736 5734 5733 5730 5728 5727 5725 5724 5722 5721 5719 5717 5716 5714 5711 5708 5705 5702 5700 5698 5696 5692 5690 5689 5687 5685 5682 5679 5677
5765 5762 5759 5756 5754 5750 5747 5745 5743 5740 5738 5736 5735 5733 5732 5731 5729 5727 5725 5724 5723 5720 5719 5717 5715 5714 5711 5708 5704 5702 5699 5698 5696 5694 5690 5688 5686 5684 5682 5679 5676 5674
5763 5760 5758 5755 5751 5748 5745 5743 5740 5738 5736 5734 5732 5732 5731 5730 5728 5726 5724 5722 5721 5718 5716 5715 5713 5711 5709 5705 5702 5700 5698 5696 5694 5691 5687 5685 5683 5681 5679 5676 5673 5671
5761 5759 5756 5753 5749 5746 5743 5740 5737 5736 5734 5731 5730 5730 5729 5728 5726 5724 5723 5720 5718 5716 5714 5712 5711 5708 5706 5703 5701 5698 5696 5694 5691 5688 5685 5682 5680 5677 5676 5674 5671 5668
5759 5757 5753 5750 5747 5744 5741 5738 5736 5734 5732 5730 5729 5728 5727 5726 5724 5722 5720 5718 5716 5713 5712 5710 5708 5706 5703 5701 5699 5697 5694 5691 5689 5686 5683 5680 5677 5675 5673 5671 5668 5666
5757 5754 5750 5747 5745 5742 5739 5736 5734 5732 5729 5727 5727 5726 5725 5724 5722 5720 5717 5716 5713 5712 5710 5708 5706 5704 5702 5700 5698 5695 5692 5689 5686 5683 5680 5677 5675 5673 5671 5668 5665 5663
5755 5751 5748 5746 5744 5741 5738 5734 5732 5729 5726 5725 5724 5723 5723 5721 5719 5716 5715 5713 5712 5710 5708 5706 5704 5702 5700 5698 5696 5693 5690 5687 5684 5681 5677 5675 5672 5669 5668 5665 5662 5660
5753 5749 5747 5745 5742 5738 5735 5733 5731 5728 5726 5725 5722 5721 5720 5718 5715 5715 5714 5712 5711 5709 5708 5706 5704 5701 5699 5697 5693 5691 5688 5684 5680 5677 5674 5671 5668 5666 5664 5662 5659 5657
5752 5749 5747 5744 5741 5737 5734 5731 5730 5728 5727 5726 5723 5720 5717 5715 5714 5714 5713 5712 5710 5709 5707 5705 5703 5700 5697 5694 5691 5688 5684 5680 5677 5673 5670 5667 5665 5663 5661 5659 5656 5654
5753 5749 5746 5742 5739 5735 5732 5730 5728 5726 5725 5723 5721 5718 5715 5714 5714 5714 5713 5711 5710 5707 5706 5703 5701 5697 5693 5690 5687 5684 5681 5677 5674 5669 5666 5664 5662 5660 5658 5656 5654 5652
5752 5747 5743 5740 5737 5733 5729 5727 5724 5721 5720 5719 5718 5716 5714 5713 5713 5713 5711 5708 5706 5703 5701 5699 5696 5693 5690 5687 5684 5681 5678 5674 5670 5666 5663 5660 5659 5657 5655 5653 5652 5650
5748 5744 5739 5736 5735 5731 5728 5726 5723 5720 5718 5718 5716 5714 5713 5712 5712 5710 5708 5704 5702 5699 5696 5694 5691 5689 5688 5686 5683 5680 5676 5671 5667 5663 5660 5658 5656 5654 5653 5652 5650 5648
5743 5740 5736 5734 5733 5729 5727 5726 5724 5722 5719 5717 5715 5713 5712 5711 5709 5706 5704 5701 5699 5697 5694 5691 5687 5686 5686 5683 5681 5678 5675 5670 5665 5661 5658 5655 5654 5653 5651 5650 5648 5646
5738 5736 5732 5732 5731 5728 5727 5727 5724 5722 5720 5716 5714 5712 5710 5708 5706 5703 5701 5699 5697 5695 5693 5689 5686 5684 5683 5681 5679 5676 5673 5669 5665 5660 5657 5655 5653 5652 5650 5648 5647 5645
5732 5732 5731 5731 5731 5730 5728 5727 5723 5721 5719 5716 5713 5710 5707 5704 5702 5700 5698 5696 5695 5693 5690 5687 5685 5683 5681 5679 5676 5674 5671 5668 5665 5660 5657 5655 5653 5652 5650 5647 5645 5642
5729 5730 5729 5728 5730 5729 5726 5724 5722 5721 5719 5715 5711 5707 5703 5701 5699 5697 5696 5695 5693 5691 5687 5685 5683 5681 5679 5676 5674 5672 5669 5666 5663 5659 5656 5654 5653 5650 5648 5645 5643 5640
5731 5729 5729 5729 5728 5725 5724 5723 5722 5719 5716 5712 5708 5704 5702 5700 5698 5696 5695 5693 5691 5688 5684 5682 5681 5679 5676 5673 5670 5668 5666 5663 5660 5657 5655 5652 5650 5648 5645 5643 5642 5639
5730 5727 5729 5730 5726 5722 5723 5723 5721 5717 5713 5709 5705 5703 5702 5700 5697 5695 5693 5691 5688 5686 5682 5678 5678 5676 5674 5670 5667 5665 5663 5660 5656 5654 5652 5650 5648 5646 5643 5641 5639 5636
5729 5726 5726 5725 5723 5722 5722 5721 5718 5714 5709 5705 5703 5701 5700 5698 5696 5694 5691 5688 5686 5683 5679 5676 5674 5674 5672 5668 5664 5661 5658 5656 5653 5651 5648 5646 5644 5642 5640 5637 5635 5632
5727 5725 5724 5723 5723 5723 5721 5718 5714 5709 5705 5703 5701 5699 5698 5697 5694 5692 5689 5687 5683 5680 5678 5675 5672 5671 5668 5665 5662 5659 5655 5652 5650 5647 5644 5642 5641 5638 5636 5633 5631 5629
5725 5725 5725 5725 5724 5723 5719 5715 5710 5706 5703 5702 5700 5698 5697 5695 5692 5689 5685 5683 5681 5678 5675 5673 5670 5668 5666 5663 5661 5657 5653 5650 5647 5644 5640 5638 5636 5634 5632 5628 5625 5623
5723 5724 5724 5724 5724 5720 5715 5711 5707 5705 5702 5700 5698 5696 5694 5692 5689 5685 5681 5679 5677 5675 5672 5669 5667 5665 5663 5660 5658 5655 5652 5647 5643 5640 5637 5634 5631 5629 5627 5623 5620 5617